Flag for U.S.A. Weather past 2 weeks in Stamford, Connecticut, U.S.A.

Now
51 °F

Light rain. Overcast.


Feels Like: 47 °F
Forecast: 41 / 57 °F
Wind: 10 mph from West

Location: Westchester County Airport

Current Time: Dec 25, 2014 at 8:04:54 AM

Latest Report: Dec 25, 2014 at 6:56 AM


Visibility: 8 mi

Pressure: 29.61 "Hg

Humidity: 74%

Dew point: 43 °F

Location of StamfordLocation

Historic Weather in Stamford — Graph

°F

Stamford temperature yesterday

Maximum temperature yesterday: 55 °F (at 7:56 PM)
Minimum temperature yesterday: 44 °F (at 8:56 AM)
Average temperature yesterday: 48 °F

Past Weeks' High & Low Weather Summary

 TemperatureHumidityPressure
High57 °F (Dec 25, 3:56 AM)100% (Dec 24, 5:03 AM)30.34 "Hg (Dec 24, 5:03 AM)
Low27 °F (Dec 20, 12:56 AM)45% (Dec 13, 12:56 PM)29.49 "Hg (Dec 25, 3:56 AM)
Average37 °F77%29.98 "Hg
* Reported Dec 10 6:56 AM — Dec 25 6:56 AM, Stamford, Weather by CustomWeather, © 2014

Note: Actual official high and low records may vary slightly from our data, if they occured in-between our weather recording intervals... More about our weather records

Advertising

Stamford weather history for previous 24 hours

 ConditionsComfort  
Time TempWeatherWind HumidityBarometerVisibility
6:56 AM
Dec 25
51 °FLight rain. Overcast.10 mph74%29.61 "Hg8 mi
5:56 AM56 °FLight rain. Fog.10 mph77%29.56 "Hg6 mi
4:56 AM57 °FLight rain. Fog.8 mph96%29.52 "Hg3 mi
3:56 AM57 °FFog.No wind96%29.49 "Hg1 mi
2:56 AM55 °FFog.No wind100%29.52 "Hg1 mi
1:56 AM54 °FFog.6 mph97%29.52 "Hg0 mi
12:56 AM53 °FFog.6 mph100%29.52 "Hg0 mi
11:56 PM
Dec 24
54 °FFog.6 mph100%29.53 "Hg0 mi
10:56 PM55 °FFog.3 mph96%29.56 "Hg0 mi
9:56 PM55 °FFog.5 mph100%29.57 "Hg0 mi
8:56 PM55 °FFog.8 mph96%29.59 "Hg0 mi
7:56 PM55 °FFog.6 mph100%29.60 "Hg0 mi
6:56 PM52 °FLight rain. Fog.7 mph97%29.61 "Hg0 mi
5:56 PM50 °FRain. Fog.7 mph96%29.66 "Hg0 mi
4:56 PM49 °FRain. Fog.7 mph97%29.69 "Hg0 mi
3:56 PM48 °FDrizzle. Fog.5 mph96%29.71 "Hg0 mi
2:56 PM47 °FLight rain. Fog.7 mph100%29.74 "Hg1 mi
1:56 PM47 °FLight rain. Fog.9 mph93%29.78 "Hg1 mi
12:56 PM46 °FLight rain. Fog.12 mph96%29.82 "Hg1 mi
11:56 AM45 °FRain. Fog.10 mph97%29.85 "Hg1 mi
10:56 AM45 °FRain. Fog.12 mph97%29.91 "Hg1 mi
9:56 AM45 °FFog.9 mph97%29.97 "Hg1 mi
8:56 AM44 °FFog.12 mph100%29.97 "Hg1 mi
Weather by CustomWeather, © 2014

See weather overviewHow to use our weather pages